Regional Weather Roundup
Issued by NWS

Home | Current Version | Previous Version | Graphics & Text | Print | Product List | Glossary On
Versions: 1 2 3 4 5 6 7 8 9 10 11 12 13 14 15 16 17 18 19 20 21 22 23 24 25 26 27 28 29 30 31 32 33 34 35 36 37 38 39 40 41 42 43 44 45 46 47 48 49 50
084
ASUS44 KLIX 280910
RWRLA
LOUISIANA WEATHER ROUNDUP
NATIONAL WEATHER SERVICE NEW ORLEANS LA
300 AM CST FRI NOV 28 2014

NOTE: "FAIR" INDICATES FEW OR NO CLOUDS BELOW 12,000 FEET WITH NO
      SIGNIFICANT WEATHER AND/OR OBSTRUCTIONS TO VISIBILITY.
      SKY/WX - SKY CONDITION AND SIGNIFICANT WEATHER.
      TMP - AIR TEMPERATURE.    DP   - DEWPOINT TEMPERATURE.
      RH  - RELATIVE HUMIDITY.  PRES - PRESSURE.
      HX  - HEAT INDEX.         WCI  - WIND CHILL INDEX.

*  THESE STATIONS ARE NOT NWS OR FAA STATIONS AND ARE NOT UNDER
   NWS QUALITY CONTROL.

LAZ040-048-061>063-065-066-069-281000-
SOUTHEAST LOUISIANA

CITY           SKY/WX    TMP DP  RH WIND       PRES   REMARKS
N.O. AUDUBON     N/A     45  36  71 MISG        N/A
N.O. INTL ARPT CLEAR     47  35  63 NE12      30.41F
N.O. LAKEFRONT CLEAR     47  36  65 NE17      30.43S
N.O. DOWNTOWN* FAIR      46  30  53 N6        30.42S
SLIDELL        CLEAR     35  30  82 CALM      30.43R
BATON ROUGE    CLEAR     36  31  82 NE5       30.43S WCI  32
BOOTHVILLE     CLEAR     52  42  69 NE8       30.40S
BELLE CHASSE   CLEAR     44  34  67 NE7       30.41S
BOGALUSA*        N/A     33  30  90 CALM      30.45S
NEW ROADS*     FAIR      38  32  80 CALM      30.43F
GONZALES*      FAIR      38  35  87 CALM      30.42S
HAMMOND*       CLEAR     37  32  81 NE3       30.45R
HOUMA*         CLEAR     39  36  89 CALM      30.42R
PORT FOURCHON* SUNNY     52  43  71 NE8       30.43S

$$

LAZ041-044-053-054-281000-
SOUTHWEST LOUISIANA

CITY           SKY/WX    TMP DP  RH WIND       PRES   REMARKS
LAKE CHARLES   CLEAR     40  35  83 E5        30.41R
LAFAYETTE      CLEAR     38  34  85 NE3       30.41F
PATTERSON      CLEAR     37  36  93 NE3       30.43S
SALT POINT       N/A     45  37  73 CALM      30.40F
NEW IBERIA     CLEAR     41  33  73 E6        30.42S
CHENAULT AIRPK CLEAR     40  35  80 CALM      30.41S

$$

LAZ027-028-281000-
CENTRAL LOUISIANA

CITY           SKY/WX    TMP DP  RH WIND       PRES   REMARKS
FORT POLK      CLEAR     37  34  91 E3        30.40S
ALEXANDRIA INT CLEAR     38  33  82 E5        30.41F WCI  34
ALEXANDRIA     CLEAR     31  29  92 CALM      30.42F

$$

LAZ001-002-281000-
NORTHWEST LOUISIANA

CITY           SKY/WX    TMP DP  RH WIND       PRES   REMARKS
SHREVEPORT     CLEAR     37  32  82 SE5       30.39F WCI  33
BARKSDALE AFB  CLEAR     34  30  86 S3        30.40F
DTN SHREVEPORT CLEAR     38  31  76 SE8       30.40F WCI  32

$$

LAZ014-016-281000-
NORTHEAST LOUISIANA

CITY           SKY/WX    TMP DP  RH WIND       PRES   REMARKS
MONROE         CLEAR     31  31 100 CALM      30.45S FOG
TALLULAH       CLEAR     27  25  92 SE3       30.44S

$$




USA.gov is the U.S. government's official web portal to all federal, state and local government web resources and services.